OpenBCM V1.07b12 (Linux)

Packet Radio Mailbox

DB0FHN

[JN59NK Nuernberg]

 Login: GUEST





  
I6KZR  > KEPLER   11.02.03 00:34l 1459 Lines 39190 Bytes #999 (0) @ WW
BID : 23072_IK6WID
Read: DB0FHN GUEST
Subj: Old Istantrak Keplerians #041
Path: DB0FHN<DB0RGB<DB0MRW<DB0MAK<DB0FSG<I4UKI<I6ZLO<IK6WID
Sent: 030210/2213Z @:IK6WID.#AP.IMAR.ITA.EU #:23072 [MONTE URANO]  FBB7.00i
From: I6KZR@IK6WID.#AP.IMAR.ITA.EU
To  : KEPLER@WW

Satellite: OSCAR 7
Catalog number: 07530
Epoch time:      103040.51393053
Element set:     148 
Inclination:      101.7633 deg
RA of node:        88.3849 deg
Eccentricity:    0.0012311
Arg of perigee:    95.5087 deg
Mean anomaly:     264.7391 deg
Mean motion:   12.53564306 rev/day
Decay rate:   -2.9000E-007 rev/day^2
Epoch rev:           29205
Checksum:              286

Satellite: GOES 2
Catalog number: 10061
Epoch time:      103028.56527598
Element set:     70 
Inclination:       14.1264 deg
RA of node:        13.5931 deg
Eccentricity:    0.0013180
Arg of perigee:   196.1337 deg
Mean anomaly:     163.8523 deg
Mean motion:    0.99391768 rev/day
Decay rate:    9.9999E-009 rev/day^2
Epoch rev:            3862
Checksum:              321

Satellite: GOES 3
Catalog number: 10953
Epoch time:      103039.96181962
Element set:     918 
Inclination:       13.4053 deg
RA of node:        17.3037 deg
Eccentricity:    0.0005282
Arg of perigee:   341.3569 deg
Mean anomaly:      18.6578 deg
Mean motion:    1.00278937 rev/day
Decay rate:   -9.0999E-007 rev/day^2
Epoch rev:            4340
Checksum:              319

Satellite: GOES 6
Catalog number: 14050
Epoch time:      103040.07554305
Element set:     421 
Inclination:       10.3882 deg
RA of node:        35.5600 deg
Eccentricity:    0.0003554
Arg of perigee:   347.4720 deg
Mean anomaly:      12.5737 deg
Mean motion:    1.00299948 rev/day
Decay rate:    5.1000E-007 rev/day^2
Epoch rev:           13054
Checksum:              246

Satellite: OSCAR 10
Catalog number: 14129
Epoch time:      103036.77933919
Element set:     915 
Inclination:       25.9013 deg
RA of node:       166.4253 deg
Eccentricity:    0.6030072
Arg of perigee:   325.3874 deg
Mean anomaly:       7.1450 deg
Mean motion:    2.05865592 rev/day
Decay rate:    9.5000E-007 rev/day^2
Epoch rev:           11980
Checksum:              373

Satellite: OSCAR 11 (UoSA
Catalog number: 14781
Epoch time:      103041.55490850
Element set:     67 
Inclination:       98.1164 deg
RA of node:        15.4168 deg
Eccentricity:    0.0008248
Arg of perigee:   233.7080 deg
Mean anomaly:     126.3369 deg
Mean motion:   14.77969508 rev/day
Decay rate:    1.5390E-005 rev/day^2
Epoch rev:            1505
Checksum:              310

Satellite: NOAA 10
Catalog number: 16969
Epoch time:      103041.13471530
Element set:     656 
Inclination:       98.7285 deg
RA of node:        35.2622 deg
Eccentricity:    0.0013327
Arg of perigee:   110.0832 deg
Mean anomaly:     250.1781 deg
Mean motion:   14.27060157 rev/day
Decay rate:    1.5099E-006 rev/day^2
Epoch rev:           85270
Checksum:              288

Satellite: GOES 7
Catalog number: 17561
Epoch time:      103040.53468456
Element set:     845 
Inclination:        7.5847 deg
RA of node:        55.5978 deg
Eccentricity:    0.0005361
Arg of perigee:   259.2607 deg
Mean anomaly:     198.7278 deg
Mean motion:    1.00250809 rev/day
Decay rate:    5.8000E-007 rev/day^2
Epoch rev:            4165
Checksum:              321

Satellite: COSMOS 1861
Catalog number: 18129
Epoch time:      103039.81633481
Element set:     198 
Inclination:       82.9259 deg
RA of node:       153.7691 deg
Eccentricity:    0.0010130
Arg of perigee:   254.9160 deg
Mean anomaly:     105.0873 deg
Mean motion:   13.72699664 rev/day
Decay rate:    6.1999E-007 rev/day^2
Epoch rev:           78317
Checksum:              355

Satellite: EUTELSAT 1-F4 
Catalog number: 18351
Epoch time:      103039.82443930
Element set:     38 
Inclination:        7.1778 deg
RA of node:        58.7234 deg
Eccentricity:    0.0006875
Arg of perigee:   200.0416 deg
Mean anomaly:     160.0826 deg
Mean motion:    0.98690377 rev/day
Decay rate:   -2.1500E-006 rev/day^2
Epoch rev:            4258
Checksum:              301

Satellite: NOAA 11
Catalog number: 19531
Epoch time:      103041.09438221
Element set:     494 
Inclination:       98.9021 deg
RA of node:       122.5047 deg
Eccentricity:    0.0011168
Arg of perigee:   223.9109 deg
Mean anomaly:     136.1177 deg
Mean motion:   14.14533640 rev/day
Decay rate:    2.0400E-006 rev/day^2
Epoch rev:           74160
Checksum:              263

Satellite: ASTRA 1A
Catalog number: 19688
Epoch time:      103040.86925594
Element set:     571 
Inclination:        1.3563 deg
RA of node:        94.8238 deg
Eccentricity:    0.0004383
Arg of perigee:   213.9848 deg
Mean anomaly:     148.8274 deg
Mean motion:    1.00273129 rev/day
Decay rate:    4.4000E-007 rev/day^2
Epoch rev:            3211
Checksum:              296

Satellite: OSCAR 14 (UOSA
Catalog number: 20437
Epoch time:      103041.17943944
Element set:     161 
Inclination:       98.2741 deg
RA of node:        85.1934 deg
Eccentricity:    0.0009869
Arg of perigee:   225.5650 deg
Mean anomaly:     134.4725 deg
Mean motion:   14.31234820 rev/day
Decay rate:    1.3699E-006 rev/day^2
Epoch rev:           68129
Checksum:              322

Satellite: OSCAR 15 (UOSA
Catalog number: 20438
Epoch time:      103038.11465241
Element set:     774 
Inclination:       98.2485 deg
RA of node:        71.4458 deg
Eccentricity:    0.0009010
Arg of perigee:   248.0097 deg
Mean anomaly:     112.0128 deg
Mean motion:   14.30194732 rev/day
Decay rate:    1.0500E-006 rev/day^2
Epoch rev:           68052
Checksum:              280

Satellite: OSCAR 16 (PACS
Catalog number: 20439
Epoch time:      103040.21713886
Element set:     849 
Inclination:       98.3188 deg
RA of node:        95.9060 deg
Eccentricity:    0.0010158
Arg of perigee:   235.0807 deg
Mean anomaly:     124.9422 deg
Mean motion:   14.31468157 rev/day
Decay rate:    1.9100E-006 rev/day^2
Epoch rev:           68119
Checksum:              309

Satellite: OSCAR 17 (DOVE
Catalog number: 20440
Epoch time:      103037.69200758
Element set:     725 
Inclination:       98.3375 deg
RA of node:        97.3502 deg
Eccentricity:    0.0010242
Arg of perigee:   242.5884 deg
Mean anomaly:     117.4255 deg
Mean motion:   14.31744553 rev/day
Decay rate:    2.1099E-006 rev/day^2
Epoch rev:           68090
Checksum:              305

Satellite: OSCAR 18 (WEBE
Catalog number: 20441
Epoch time:      103040.89741816
Element set:     8 
Inclination:       98.3345 deg
RA of node:        99.6466 deg
Eccentricity:    0.0010901
Arg of perigee:   231.7955 deg
Mean anomaly:     128.2248 deg
Mean motion:   14.31550059 rev/day
Decay rate:    1.7200E-006 rev/day^2
Epoch rev:           68134
Checksum:              300

Satellite: OSCAR 19 (LUSA
Catalog number: 20442
Epoch time:      103040.24784930
Element set:     959 
Inclination:       98.3480 deg
RA of node:       102.0301 deg
Eccentricity:    0.0011065
Arg of perigee:   235.0516 deg
Mean anomaly:     124.9625 deg
Mean motion:   14.31712481 rev/day
Decay rate:    1.6499E-006 rev/day^2
Epoch rev:           68130
Checksum:              285

Satellite: JAS 1B (FUJI 2
Catalog number: 20480
Epoch time:      103039.95711336
Element set:     461 
Inclination:       99.0443 deg
RA of node:         4.5076 deg
Eccentricity:    0.0540812
Arg of perigee:    25.6387 deg
Mean anomaly:     337.0501 deg
Mean motion:   12.83329359 rev/day
Decay rate:   -2.2999E-007 rev/day^2
Epoch rev:           60928
Checksum:              316

Satellite: HST
Catalog number: 20580
Epoch time:      103041.36427012
Element set:     322 
Inclination:       28.4678 deg
RA of node:        91.3701 deg
Eccentricity:    0.0004218
Arg of perigee:   179.9886 deg
Mean anomaly:     287.1780 deg
Mean motion:   14.97783309 rev/day
Decay rate:    2.7809E-005 rev/day^2
Epoch rev:           50140
Checksum:              309

Satellite: EUTELSAT 2-F1
Catalog number: 20777
Epoch time:      103037.63706572
Element set:     27 
Inclination:        3.4727 deg
RA of node:        84.6705 deg
Eccentricity:    0.0000971
Arg of perigee:   307.2622 deg
Mean anomaly:      49.7531 deg
Mean motion:    1.00271116 rev/day
Decay rate:   -9.5999E-007 rev/day^2
Epoch rev:            2597
Checksum:              307

Satellite: FENGYUN 1B
Catalog number: 20788
Epoch time:      103041.18473346
Element set:     878 
Inclination:       99.0265 deg
RA of node:        23.4485 deg
Eccentricity:    0.0014986
Arg of perigee:   253.6168 deg
Mean anomaly:     106.3350 deg
Mean motion:   14.02134002 rev/day
Decay rate:   -1.8800E-006 rev/day^2
Epoch rev:           63636
Checksum:              300

Satellite: EUTELSAT 2-F2
Catalog number: 21056
Epoch time:      103037.89205237
Element set:     616 
Inclination:        2.7020 deg
RA of node:        88.0399 deg
Eccentricity:    0.0003114
Arg of perigee:   262.5734 deg
Mean anomaly:     155.5121 deg
Mean motion:    1.00274081 rev/day
Decay rate:    1.2399E-006 rev/day^2
Epoch rev:            3176
Checksum:              266

Satellite: INFORMATOR 1
Catalog number: 21087
Epoch time:      103039.87990461
Element set:     597 
Inclination:       82.9433 deg
RA of node:       324.5811 deg
Eccentricity:    0.0033906
Arg of perigee:   279.0745 deg
Mean anomaly:      80.6573 deg
Mean motion:   13.74925208 rev/day
Decay rate:    6.5000E-007 rev/day^2
Epoch rev:           60355
Checksum:              323

Satellite: COSMOS 2123
Catalog number: 21089
Epoch time:      103040.87750754
Element set:     489 
Inclination:       82.9227 deg
RA of node:       187.8220 deg
Eccentricity:    0.0028264
Arg of perigee:   313.0251 deg
Mean anomaly:      46.8536 deg
Mean motion:   13.74403191 rev/day
Decay rate:    6.3999E-007 rev/day^2
Epoch rev:           60259
Checksum:              332

